Theta_e
354 360 364 361 357 357 358 359 360 361 361 361 362 361 361 361 361 361 359 358 358 356 354 352 352 353 352 350 351 354 355 354 353 353 355 356 356 357 358 355 352 348 351
356 360 363 361 358 357 357 359 360 361 360 361 361 361 361 361 361 360 359 358 358 355 353 352 352 350 350 351 353 353 352 353 353 354 355 350 348 350 357 357 358 354 351
356 359 360 361 358 358 359 359 360 360 360 360 360 360 360 360 359 357 357 357 355 353 352 351 349 349 352 353 352 352 352 353 354 354 351 343 338 344 349 356 360 355 355
357 358 359 362 359 359 359 359 359 359 359 359 360 360 359 358 357 355 355 354 353 352 351 349 349 351 353 352 352 352 353 353 353 352 344 341 338 342 347 356 359 357 357
348 358 359 361 359 359 357 358 358 359 358 359 360 360 359 358 357 357 356 355 353 352 352 352 352 352 351 351 352 354 354 352 351 347 343 340 341 338 349 361 356 354 353
341 357 361 361 359 359 358 357 358 358 358 359 359 359 358 357 357 357 356 355 353 352 352 352 351 351 351 352 354 354 353 352 352 344 342 341 338 346 360 356 354 354 353
353 356 360 361 359 359 358 357 358 358 358 358 359 358 357 357 357 357 355 354 354 354 353 352 351 353 354 353 353 353 353 351 349 345 344 342 342 355 356 354 353 352 351
354 355 358 360 359 358 358 358 358 358 357 358 358 358 357 357 357 355 355 355 356 355 354 353 353 354 352 352 353 353 353 353 351 346 343 342 354 355 354 352 351 350 349
355 355 357 357 357 359 358 357 357 357 357 358 357 357 357 356 356 356 356 357 356 356 355 353 354 352 352 352 352 352 355 357 346 343 343 352 353 353 352 350 349 346 343
354 354 354 355 354 353 354 358 357 358 358 357 357 356 356 355 355 355 354 356 356 355 353 353 352 352 351 351 351 353 356 350 343 348 352 351 354 351 348 345 343 340 337
352 351 352 353 351 351 352 354 357 356 357 357 356 356 353 349 351 353 353 354 354 353 353 352 352 351 352 349 351 353 349 347 351 351 350 353 350 345 344 343 340 336 334
348 349 351 351 350 349 351 351 351 352 351 350 349 349 346 345 347 350 351 353 351 352 352 349 348 350 346 345 346 347 345 350 348 349 347 346 344 342 342 339 336 334 332
347 348 349 350 349 347 346 347 348 347 347 346 345 345 342 342 343 344 340 339 342 345 342 338 346 347 346 345 345 345 348 348 348 341 341 344 344 342 338 335 334 333 332
344 346 347 349 348 345 345 347 346 345 344 342 341 341 338 335 334 335 337 338 340 339 335 342 347 347 345 344 343 343 347 346 343 337 337 344 343 337 335 333 332 332 331
342 343 345 348 348 344 345 345 344 343 341 339 338 338 335 333 334 337 337 338 338 336 335 346 345 343 342 342 343 344 345 344 336 334 337 338 340 336 333 332 331 331 329
342 341 344 346 346 343 342 341 342 340 337 336 336 337 336 334 336 337 336 336 336 340 346 345 342 341 340 342 343 345 344 339 336 334 334 335 337 336 332 330 329 328 328
342 343 343 344 345 342 339 339 338 337 335 335 335 336 336 335 336 337 334 334 340 345 342 340 340 341 338 338 340 341 341 337 335 331 329 331 331 334 330 328 327 327 327
340 342 343 344 341 340 336 337 337 335 333 333 336 337 340 339 339 337 337 342 345 342 341 340 339 335 331 333 332 328 325 326 326 326 323 324 324 325 327 326 325 325 325
339 339 341 343 338 336 334 333 333 333 333 333 337 339 341 343 340 341 344 343 341 340 340 339 334 331 326 325 321 320 319 318 320 321 321 322 321 321 321 323 323 323 324
335 337 339 337 336 333 334 331 333 333 334 336 338 340 342 342 345 345 342 341 341 337 336 325 322 322 323 320 316 315 315 316 316 317 319 319 319 319 319 318 318 317 322
334 333 334 332 331 331 331 329 332 331 337 339 340 342 345 347 345 342 341 338 334 331 331 323 319 320 317 319 316 314 314 315 314 315 317 317 318 319 318 318 317 317 316
332 332 332 331 330 331 333 333 335 337 340 341 343 345 347 343 342 340 336 331 327 324 327 323 320 316 315 314 315 311 310 313 314 313 314 315 315 317 317 318 317 317 316
332 331 332 331 329 331 334 339 340 340 338 338 337 338 338 340 339 335 330 327 324 323 320 320 319 317 313 313 313 312 305 306 309 313 313 313 314 314 314 315 316 316 316
332 334 334 333 333 334 340 338 338 337 335 337 334 331 330 332 330 328 326 324 321 319 319 319 317 316 315 311 311 311 310 310 308 307 311 312 313 313 313 314 315 315 315
333 335 336 335 337 340 341 340 339 337 334 330 328 326 324 324 325 324 322 320 318 317 316 316 314 314 313 312 311 309 310 308 308 306 305 309 312 312 313 312 312 313 314
334 336 336 336 340 341 341 341 339 334 330 326 324 323 321 321 321 320 319 318 317 317 316 315 314 313 312 312 311 310 309 308 309 308 307 307 307 311 312 313 313 312 313
Wind_Speed
12 16 30 23 19 17 16 16 15 14 17 20 22 19 17 16 15 14 13 11 9 8 8 8 7 6 6 7 6 5 4 4 5 6 5 5 6 6 8 7 6 4 5
12 15 24 26 21 19 18 17 15 13 16 18 20 20 17 15 14 13 13 11 9 8 7 7 6 5 5 4 4 5 5 6 7 8 9 8 10 10 7 7 9 5 3
15 14 18 26 22 19 19 18 17 17 15 15 17 18 17 15 14 13 12 11 9 7 6 5 5 3 3 4 5 6 7 7 8 9 10 7 8 10 10 11 10 5 4
15 14 14 25 22 20 19 19 18 18 17 16 17 16 15 15 13 12 11 11 9 7 5 4 3 2 4 5 6 7 9 9 9 9 6 6 6 10 12 14 2 5 8
8 12 17 24 23 20 20 20 19 19 18 17 16 16 15 14 13 11 10 9 8 6 5 3 2 3 4 5 8 9 10 10 10 7 5 5 6 8 12 9 11 11 10
5 8 17 26 23 23 21 19 19 20 18 17 16 15 14 13 12 10 9 7 7 6 4 2 2 3 6 9 9 9 9 10 10 5 5 7 7 10 13 15 13 13 13
6 6 12 20 22 22 21 20 19 19 17 16 15 15 14 12 11 10 9 8 6 5 4 1 2 5 7 8 10 10 10 11 6 5 5 5 5 12 15 16 15 15 16
14 8 11 15 17 19 19 19 17 17 16 15 15 14 13 11 10 9 8 7 5 3 1 2 4 6 8 9 10 11 11 9 5 5 5 5 11 14 17 17 16 18 18
14 11 10 11 12 15 17 18 17 17 16 13 12 12 11 10 9 9 7 6 4 2 1 4 6 6 8 10 11 12 10 8 5 5 8 7 14 16 17 18 18 18 17
12 12 12 10 9 8 7 14 16 16 16 14 12 11 11 10 8 7 6 5 4 1 2 5 6 6 7 10 10 10 7 11 10 9 8 7 15 17 18 17 16 16 16
11 11 11 11 8 8 7 9 11 16 15 14 12 10 7 3 4 5 5 4 2 2 4 6 7 7 5 5 7 10 9 6 9 7 5 14 16 17 16 17 15 14 13
14 13 12 12 9 9 7 7 6 6 4 4 5 5 3 3 3 3 2 4 3 3 4 6 8 6 5 2 3 8 5 8 8 7 7 15 15 16 15 15 13 12 12
12 11 12 12 11 10 7 5 3 3 3 3 5 5 4 3 2 1 0 1 2 3 1 3 3 3 5 3 4 4 7 7 5 6 9 14 15 15 14 14 12 11 12
7 10 11 11 10 9 5 6 6 6 4 3 4 6 4 2 2 2 1 2 1 1 1 1 2 3 4 3 4 6 7 7 5 4 8 13 14 15 13 13 12 11 13
6 8 11 12 11 8 8 6 5 5 5 4 4 5 4 4 3 3 3 2 2 2 2 2 3 3 4 4 6 8 8 9 8 4 3 14 13 13 13 14 13 13 14
7 7 7 11 11 8 7 7 6 3 5 5 4 4 5 4 4 3 3 2 2 2 3 3 3 3 3 5 7 7 8 7 7 6 4 6 13 12 14 13 13 14 15
7 7 8 11 8 10 9 8 6 6 4 4 4 6 6 5 4 4 3 3 2 3 4 3 4 3 4 5 7 6 6 7 6 7 5 4 5 12 14 13 13 13 15
11 10 9 9 7 8 8 7 6 5 5 4 4 4 5 6 5 5 3 3 3 3 3 3 3 4 4 5 5 5 4 5 6 5 5 4 5 5 8 12 12 14 15
13 13 12 11 9 7 7 5 5 6 5 4 3 3 5 4 5 4 4 4 4 3 3 3 2 3 5 6 6 5 5 5 5 4 5 6 6 4 4 10 13 13 16
10 13 13 9 10 7 6 5 4 4 3 3 3 4 5 4 5 4 4 4 4 4 4 3 4 4 4 6 8 7 5 5 5 4 4 5 5 4 4 5 5 6 15
8 14 14 11 8 8 6 5 4 5 3 3 3 6 6 5 6 6 4 4 3 4 4 4 4 8 5 2 4 4 4 5 6 4 3 4 4 3 3 4 4 5 7
11 13 11 12 8 8 7 6 3 5 3 3 3 4 5 7 6 5 5 4 4 4 5 4 4 4 2 2 3 2 1 2 3 4 3 4 4 2 4 6 7 7 8
8 9 11 12 9 8 7 5 5 6 5 3 3 4 3 6 5 6 5 4 4 3 4 4 4 5 3 3 4 3 2 2 1 1 2 3 4 3 4 4 7 8 9
13 13 14 14 11 8 11 8 12 7 7 3 4 4 4 4 5 5 4 4 5 3 4 3 3 2 4 4 2 4 4 3 3 1 1 1 1 2 4 4 6 8 9
16 17 15 15 13 10 11 13 10 9 5 6 7 9 6 4 5 5 5 5 5 4 4 5 5 5 3 3 2 2 3 4 3 2 1 2 2 1 2 5 5 6 8
16 16 16 18 11 13 12 13 13 15 13 10 8 8 5 4 4 5 5 5 5 5 5 4 5 6 5 5 4 3 2 2 1 2 1 1 2 2 2 3 5 6 7
Wind_Direction
194 163 141 146 147 147 140 132 128 127 121 120 121 125 130 132 134 140 141 142 138 137 136 129 127 128 122 118 116 106 85 53 26 18 3 338 319 292 268 267 264 268 250
153 158 144 140 146 149 145 141 132 127 122 125 127 130 133 133 136 142 141 143 145 144 141 131 129 127 118 100 75 56 43 29 13 3 354 354 349 335 318 296 266 251 243
151 156 146 138 146 152 151 146 141 134 129 128 128 132 136 135 140 141 141 143 147 146 142 130 122 117 80 47 24 14 17 15 11 358 359 353 346 343 329 326 253 252 294
146 153 155 140 145 154 154 148 146 139 138 139 136 136 137 137 140 141 146 145 149 147 138 123 116 71 30 17 358 352 359 358 356 358 359 346 335 327 340 342 32 30 13
148 162 163 145 147 157 157 152 150 144 144 144 143 142 142 142 143 144 149 151 149 145 134 120 68 15 357 352 341 347 350 341 346 355 335 334 341 337 346 38 45 33 20
179 181 173 149 153 157 157 158 153 148 152 148 149 147 143 147 146 147 153 152 151 145 127 111 40 337 343 349 337 336 327 329 336 332 344 348 349 349 58 53 48 44 37
120 164 177 153 155 158 157 160 158 152 156 154 153 150 150 155 151 154 157 153 154 142 133 120 339 339 345 333 326 327 319 331 335 346 10 10 7 66 64 60 53 48 46
144 152 164 158 158 161 156 158 162 154 158 155 154 156 155 162 154 158 157 154 158 142 161 346 338 335 328 324 326 316 315 337 360 18 42 61 73 70 65 64 59 56 51
134 144 160 151 164 166 162 161 161 157 155 155 156 156 160 168 159 160 154 158 162 181 345 328 316 325 325 327 322 323 330 19 57 67 87 81 67 70 70 66 65 56 48
132 146 154 148 161 154 166 168 161 159 157 153 159 163 168 171 163 156 161 173 180 203 299 301 306 319 328 320 333 339 46 77 78 79 88 88 80 75 71 66 58 47 41
136 155 161 153 158 145 152 173 164 163 158 154 162 168 161 140 146 166 166 196 221 275 302 317 315 326 325 335 14 23 53 76 84 83 81 78 83 79 72 68 59 51 44
160 166 163 159 160 154 165 160 138 156 134 130 136 146 128 129 128 152 185 234 257 278 310 338 351 40 75 49 49 45 72 82 82 77 84 84 81 78 78 68 57 52 37
166 174 172 167 156 159 161 130 126 113 126 133 142 137 124 120 111 82 346 340 340 284 351 357 20 42 63 55 56 70 93 85 84 82 82 85 86 87 75 67 55 51 39
199 176 174 171 160 157 133 156 150 145 141 148 146 139 133 141 153 184 214 230 227 264 227 71 73 67 55 54 69 93 101 101 92 83 89 87 93 87 78 64 46 46 33
203 199 186 176 168 159 148 148 151 153 152 150 150 147 147 170 173 178 225 231 218 224 195 121 90 69 55 60 75 103 104 107 101 88 76 94 91 81 74 54 44 37 22
191 205 205 186 176 159 151 143 145 144 147 149 148 171 167 170 178 186 212 233 181 167 129 122 116 93 75 75 81 94 105 98 96 87 72 94 82 74 66 56 45 28 12
189 186 196 206 186 167 149 153 148 153 158 159 169 177 182 183 190 172 175 166 166 135 122 107 98 93 82 78 87 86 100 106 98 89 87 77 62 67 67 58 40 21 9
156 181 181 188 183 183 151 152 153 149 159 174 181 173 183 195 186 178 164 158 163 127 117 111 110 90 83 85 82 66 65 70 83 85 80 82 65 54 57 57 34 20 11
166 159 168 179 168 179 147 140 146 158 163 187 166 160 187 197 173 159 156 155 155 124 118 132 91 102 97 91 92 65 51 56 56 82 82 80 61 64 57 46 32 14 8
164 152 160 157 158 167 156 136 138 156 144 161 161 164 181 172 160 142 131 147 144 120 117 95 97 61 93 106 90 72 50 45 51 63 63 71 61 69 65 43 19 360 358
177 154 159 149 152 159 156 159 145 156 144 144 164 170 161 141 141 138 147 140 129 125 128 130 108 111 94 79 102 64 40 44 56 55 62 54 49 59 55 29 12 4 354
174 157 144 144 163 175 177 174 148 139 124 120 137 124 130 137 141 144 141 142 131 119 133 141 127 118 96 28 112 90 102 356 32 36 27 33 30 34 26 27 13 1 358
171 151 167 144 163 177 149 121 111 103 98 94 89 99 95 121 127 132 138 136 130 110 139 127 123 123 135 49 69 130 120 206 296 341 25 35 30 27 19 12 10 2 356
177 171 170 147 172 173 155 151 163 157 151 145 133 128 102 103 116 117 122 112 103 121 115 115 128 125 128 127 97 52 56 131 168 251 331 331 327 30 35 43 20 358 354
175 169 170 154 172 172 166 163 161 145 124 125 120 124 119 105 98 99 102 108 112 102 107 125 121 122 90 121 117 139 71 61 74 114 229 308 311 50 64 52 24 7 357
173 164 155 157 162 165 161 164 162 146 142 138 138 138 135 121 98 89 107 103 102 99 93 111 111 107 108 94 101 85 113 119 66 70 66 310 286 292 287 20 10 359 353